カタログに戻る

JACKAL-004

運用中軍事SSO
NORAD 69012·PAYLOAD·🇺🇸 United States

打ち上げ May 3, 2026 から Vandenberg Space Force Base

Loading…

次のパス (今後24時間)

TLE

最新Source: Space-Track

元期: Sep 14, 2026, 14:48 UTC

1 69012U 26100AJ  26257.61691884  .00003066  00000-0  13988-3 0  9999
2 69012  97.4521 154.3641 0011634 210.8643 149.1910 15.21334325 20401

AllMySatでJACKAL-004をリアルタイム追跡

Download on the App Store